DELTA 1 DEB, 14904

Orbit data source: Space-Track

DELTA 1 DEB, 14904 is space debris in SSO originally from a launch on Thu, 29 Jul 1976 UTC launched from the Air Force Western Test Range (AFWTR). Debris objects in space refer to the collection of defunct objects orbiting the Earth. Examples of debris include non-operational satellites, rocket bodies, and fragments generated from explosions, collisions, or faulty payload assembly.

Loading next visibility...
Identifier
14904, 1976-077ES
Orbit
SSO
Country
Flag of USUS
Related business
Manufacturer
Unknown
Mission
Spacecraft
Bus & Motor
Unknown
Mass
Unknown
Launch date (UTC)
1976-07-29 (50 years ago)
Launch vehicle
Unknown
Launch site
Air Force Western Test Range (AFWTR)
Object type
Payload
Rocket body
Debris
Shape & HBR
Unknown shape, 0.1 m
Radar Cross Section
Small (<0.1 m²)

Expand to show TLE details & history
Last TLE update: 6 days ago

TLE from 6 days ago
0 DELTA 1 DEB
1 14904U 76077ES  26027.59829030  .00000193  00000-0  11944-2 0  9992
2 14904 102.7273 293.2570 0011261 310.6963 167.7861 12.72998065575393
Epoch: 2026-01-27T14:21Z
TLE epoch observation values (Epoch: 2026-01-27T14:21:32.281Z)
Latitude
59.09178°
Longitude
153.04377°
Altitude
1,388.065 km
Speed
7.167 km/s
True Right ascension
09h 01m 13s
True Declination
58° 57' 08"
Sunlit
Object was in full shadow at epoch
Visualization orbit readout
Latitude
Unknown
Longitude
Unknown
Altitude
Unknown
Speed
Unknown
Apparent Right ascension
Unknown
Apparent Declination
Unknown
Sunlit
N/A
Visualization observer readout
Local Sidereal Time
02:44:18
Azimuth
Unknown
Elevation
Unknown
Doppler factor
Unknown
Orbital elements
Apogee altitude
1,376.05 km
Perigee altitude
1,358.606 km
Semi-major axis
7,745.465 km
Eccentricity
0.00113
Inclination
102.7273°
RAAN
293.257°
Arg. of periapsis
310.6963°
True anomaly
167.81336°
Mean anomaly
167.7861°
Eccentric anomaly
167.79974°
Mean motion
3.18399 °/min
Orbital period
113.07 mins
BSTAR
0.0011944
Loading maneuver chart data...
Computing Atmospheric mass density...
Loading historical data...
Loading historical data...
Loading historical data...
Loading historical data...
Loading historical data...
Loading historical data...
Loading historical data...

Documentation

Showing up to 5 results
|